Weather History for KSFY - January, 2014

Change the Weather History Date:

Sunday, January 5, 2014

  Actual Average (KCWI) Record (KCWI)
Temperature  
Mean Temperature 6 °F -  
Max Temperature 20 °F 28 °F 53 °F (1956)
Min Temperature -9 °F 10 °F -23 °F (1959)
Degree Days  
Heating Degree Days 58    
Moisture  
Dew Point -4 °F    
Average Humidity 57    
Maximum Humidity 64    
Minimum Humidity 48    
Precipitation  
Precipitation 0.00 in - - ()
Sea Level Pressure  
Sea Level Pressure 30.14 in    
Wind  
Wind Speed 14 mph (NNW)    
Max Wind Speed 22 mph    
Max Gust Speed 32 mph    
Visibility 10 miles    
Events      
Averages and records for this station are not official NWS values.
T = Trace of Precipitation, MM = Missing Value Source: NWS Daily Summary

Daily Weather History Graph

Daily Weather History Graph

Search for Another Location

Airport or City:

Trip Planner

Search our weather history database for the weather conditions in past years. The results will help you decide how hot, cold, wet, or windy it might be!

Date:

Astronomy

Jan. 05, 2014 Rise Set
Actual Time 7:28 AM CST 4:43 PM CST
Civil Twilight 6:57 AM CST 5:14 PM CST
Nautical Twilight 6:22 AM CST 5:49 PM CST
Astronomical Twilight 5:48 AM CST 6:23 PM CST
Moon 10:04 AM CST (1/5) 10:17 PM CST (1/5)
Length of Visible Light 10h 17m
Length of Day
9h 14m
Waxing Crescent, 25% of the Moon is Illuminated
Jan 5
Waxing Crescent
Jan 7
First Quarter
Jan 15
Full
Jan 23
Last Quarter
Jan 30
New

Hourly Weather History & Observations

Time (CST) Temp. Windchill Dew Point Humidity Pressure Visibility Wind Dir Wind Speed Gust Speed Precip Events Conditions
12:15 AM 20.8 °F 9.7 °F 10.2 °F 64% 30.05 in 10.0 mi North 10.4 mph 18.4 mph N/A   Overcast
12:35 AM 19.9 °F 6.2 °F 9.3 °F 63% 30.05 in 10.0 mi North 15.0 mph 20.7 mph N/A   Overcast
12:55 AM 19.4 °F 6.6 °F 8.6 °F 63% 30.07 in 10.0 mi North 12.7 mph - N/A   Overcast
1:15 AM 19.0 °F 5.6 °F 8.4 °F 63% 30.07 in 10.0 mi North 13.8 mph - N/A   Overcast
1:35 AM 18.7 °F 5.1 °F 7.7 °F 62% 30.08 in 10.0 mi North 13.8 mph 18.4 mph N/A   Overcast
1:55 AM 18.5 °F 4.9 °F 7.9 °F 63% 30.09 in 10.0 mi North 13.8 mph 17.3 mph N/A   Overcast
2:15 AM 18.0 °F 5.4 °F 7.2 °F 63% 30.09 in 10.0 mi North 11.5 mph - N/A   Overcast
2:35 AM 18.0 °F 5.4 °F 7.2 °F 63% 30.11 in 10.0 mi North 11.5 mph - N/A   Overcast
2:55 AM 17.6 °F 5.0 °F 6.8 °F 63% 30.10 in 10.0 mi North 11.5 mph 18.4 mph N/A   Overcast
3:15 AM 17.4 °F 6.2 °F 6.8 °F 63% 30.09 in 10.0 mi North 9.2 mph - N/A   Overcast
3:35 AM 17.2 °F 6.0 °F 6.6 °F 63% 30.10 in 10.0 mi North 9.2 mph - N/A   Overcast
3:55 AM 16.7 °F 3.2 °F 6.3 °F 64% 30.09 in 10.0 mi North 12.7 mph 17.3 mph N/A   Overcast
4:15 AM 16.7 °F 2.0 °F 6.4 °F 64% 30.09 in 10.0 mi North 15.0 mph - N/A   Overcast
4:35 AM 16.3 °F 2.7 °F 5.9 °F 64% 30.09 in 10.0 mi North 12.7 mph - N/A   Overcast
4:55 AM 15.8 °F 1.4 °F 5.7 °F 64% 30.09 in 10.0 mi North 13.8 mph 20.7 mph N/A   Overcast
5:15 AM 15.4 °F 0.4 °F 5.0 °F 63% 30.09 in 10.0 mi North 15.0 mph 18.4 mph N/A   Overcast
5:35 AM 15.3 °F 1.4 °F 4.6 °F 63% 30.10 in 10.0 mi North 12.7 mph 20.7 mph N/A   Overcast
5:55 AM 14.9 °F -0.8 °F 4.3 °F 63% 30.10 in 10.0 mi North 16.1 mph - N/A   Overcast
6:15 AM 14.7 °F 1.4 °F 3.9 °F 62% 30.12 in 10.0 mi North 11.5 mph - N/A   Overcast
6:35 AM 14.5 °F -0.2 °F 3.7 °F 62% 30.12 in 10.0 mi North 13.8 mph 18.4 mph N/A   Overcast
6:55 AM 14.0 °F -1.4 °F 3.0 °F 62% 30.12 in 10.0 mi North 15.0 mph 21.9 mph N/A   Overcast
7:15 AM 13.6 °F -1.9 °F 2.7 °F 62% 30.11 in 10.0 mi North 15.0 mph - N/A   Overcast
7:35 AM 13.3 °F -1.8 °F 2.3 °F 62% 30.12 in 10.0 mi North 13.8 mph 18.4 mph N/A   Overcast
7:55 AM 13.1 °F -2.6 °F 2.5 °F 63% 30.13 in 10.0 mi North 15.0 mph - N/A   Overcast
8:15 AM 12.7 °F -1.8 °F 2.3 °F 63% 30.15 in 10.0 mi North 12.7 mph - N/A   Overcast
8:35 AM 12.2 °F -5.3 °F 1.0 °F 61% 30.14 in 10.0 mi North 18.4 mph 24.2 mph N/A   Overcast
8:55 AM 12.0 °F -5.1 °F -0.2 °F 58% 30.12 in 10.0 mi North 17.3 mph 25.3 mph N/A   Overcast
9:15 AM 11.8 °F -3.6 °F -0.9 °F 57% 30.15 in 10.0 mi North 13.8 mph 21.9 mph N/A   Overcast
9:35 AM 11.8 °F -3.6 °F -0.6 °F 58% 30.16 in 10.0 mi North 13.8 mph 21.9 mph N/A   Overcast
9:55 AM 12.0 °F -3.4 °F -1.1 °F 56% 30.16 in 10.0 mi North 13.8 mph - N/A   Overcast
10:15 AM 12.0 °F -2.7 °F -1.1 °F 56% 30.15 in 10.0 mi North 12.7 mph - N/A   Overcast
10:35 AM 11.5 °F -5.2 °F -2.7 °F 53% 30.15 in 10.0 mi North 16.1 mph 20.7 mph N/A   Overcast
10:55 AM 11.7 °F -3.8 °F -3.5 °F 51% 30.12 in 10.0 mi North 13.8 mph - N/A   Overcast
11:15 AM 11.3 °F -4.3 °F -3.5 °F 52% 30.13 in 10.0 mi North 13.8 mph 18.4 mph N/A   Overcast
11:35 AM 11.3 °F -4.3 °F -4.2 °F 50% 30.13 in 10.0 mi North 13.8 mph 20.7 mph N/A   Overcast
11:55 AM 11.3 °F -6.0 °F -4.9 °F 48% 30.11 in 10.0 mi NNW 17.3 mph 25.3 mph N/A   Overcast
12:15 PM 11.1 °F -3.9 °F -4.2 °F 50% 30.09 in 10.0 mi North 12.7 mph 20.7 mph N/A   Overcast
12:35 PM 10.9 °F -5.9 °F -4.5 °F 50% 30.10 in 10.0 mi North 16.1 mph 19.6 mph N/A   Overcast
12:55 PM 10.4 °F -7.2 °F -5.3 °F 49% 30.09 in 10.0 mi NNW 17.3 mph 21.9 mph N/A   Overcast
1:15 PM 10.2 °F -7.4 °F -6.2 °F 48% 30.10 in 10.0 mi NNW 17.3 mph 23.0 mph N/A   Overcast
1:35 PM 10.4 °F -7.2 °F -5.1 °F 50% 30.10 in 10.0 mi NNW 17.3 mph - N/A   Overcast
1:55 PM 10.0 °F -7.1 °F -5.3 °F 50% 30.11 in 10.0 mi NNW 16.1 mph 20.7 mph N/A   Overcast
2:15 PM 9.7 °F -8.1 °F -5.6 °F 50% 30.10 in 10.0 mi NNW 17.3 mph 23.0 mph N/A   Overcast
2:35 PM 9.3 °F -7.4 °F -6.7 °F 48% 30.11 in 10.0 mi North 15.0 mph 21.9 mph N/A   Overcast
2:55 PM 8.6 °F -9.5 °F -5.3 °F 53% 30.11 in 10.0 mi NNW 17.3 mph 23.0 mph N/A   Overcast
3:15 PM 7.7 °F -10.7 °F -7.8 °F 49% 30.13 in 10.0 mi NNW 17.3 mph 26.5 mph N/A   Overcast
3:35 PM 7.3 °F -10.0 °F -8.0 °F 50% 30.14 in 10.0 mi NNW 15.0 mph 24.2 mph N/A   Overcast
3:55 PM 6.8 °F -13.4 °F -8.1 °F 51% 30.15 in 10.0 mi NW 20.7 mph 25.3 mph N/A   Overcast
4:15 PM 5.9 °F -11.8 °F -9.0 °F 50% 30.15 in 10.0 mi NNW 15.0 mph 20.7 mph N/A   Overcast
4:35 PM 5.5 °F -14.5 °F -9.6 °F 50% 30.15 in 10.0 mi NW 19.6 mph 24.2 mph N/A   Overcast
4:55 PM 5.0 °F -12.3 °F -9.6 °F 51% 30.16 in 10.0 mi NW 13.8 mph 21.9 mph N/A   Overcast
5:15 PM 4.3 °F -13.9 °F -9.6 °F 53% 30.16 in 10.0 mi NW 15.0 mph 23.0 mph N/A   Overcast
5:35 PM 3.6 °F -15.4 °F -11.7 °F 49% 30.17 in 10.0 mi NW 16.1 mph 25.3 mph N/A   Mostly Cloudy
5:55 PM 3.4 °F -12.9 °F -11.6 °F 50% 30.18 in 10.0 mi NW 11.5 mph 18.4 mph N/A   Mostly Cloudy
6:15 PM 2.8 °F -17.0 °F -13.0 °F 48% 30.19 in 10.0 mi NW 17.3 mph 24.2 mph N/A   Mostly Cloudy
6:35 PM 2.3 °F -16.4 °F -11.0 °F 54% 30.19 in 10.0 mi NW 15.0 mph 26.5 mph N/A   Scattered Clouds
6:55 PM 1.9 °F -17.5 °F -11.6 °F 53% 30.19 in 10.0 mi WNW 16.1 mph 20.7 mph N/A   Scattered Clouds
7:15 PM 0.9 °F -20.1 °F -11.4 °F 56% 30.20 in 7.0 mi WNW 18.4 mph 27.6 mph N/A   Scattered Clouds
7:35 PM 0.3 °F -20.8 °F -12.8 °F 54% 30.20 in 10.0 mi WNW 18.4 mph 29.9 mph N/A   Scattered Clouds
7:55 PM -0.4 °F -23.3 °F -12.6 °F 56% 30.20 in 10.0 mi WNW 21.9 mph 27.6 mph N/A   Clear
8:15 PM -0.8 °F -21.6 °F -12.6 °F 57% 30.21 in 10.0 mi WNW 17.3 mph 28.8 mph N/A   Clear
8:35 PM -1.3 °F -23.5 °F -12.8 °F 58% 30.21 in 7.0 mi WNW 19.6 mph 32.2 mph N/A   Clear
8:55 PM -1.8 °F -22.4 °F -12.8 °F 60% 30.21 in 10.0 mi WNW 16.1 mph 29.9 mph N/A   Clear
9:15 PM -2.9 °F -23.1 °F -13.0 °F 62% 30.21 in 10.0 mi WNW 15.0 mph - N/A   Clear
9:35 PM -3.6 °F -25.4 °F -13.9 °F 62% 30.21 in 10.0 mi WNW 17.3 mph 27.6 mph N/A   Clear
9:55 PM -4.5 °F -25.9 °F -14.1 °F 64% 30.21 in 10.0 mi WNW 16.1 mph 23.0 mph N/A   Clear
10:15 PM -5.1 °F -27.2 °F -15.7 °F 60% 30.21 in 10.0 mi WNW 17.3 mph 25.3 mph N/A   Clear
10:35 PM -5.8 °F -28.2 °F -17.5 °F 57% 30.21 in 10.0 mi WNW 17.3 mph 31.1 mph N/A   Clear
10:57 PM -7.6 °F -31.7 °F -18.4 °F 59% 30.21 in 10.0 mi WNW 19.6 mph 26.5 mph N/A   Clear
11:19 PM -7.6 °F -31.7 °F -18.4 °F 59% 30.21 in 10.0 mi WNW 19.6 mph 29.9 mph N/A   Clear
11:37 PM -9.4 °F -32.8 °F -20.2 °F 59% 30.22 in 10.0 mi WNW 17.3 mph 24.2 mph N/A   Clear